| time (UTC) | temp F | wind direction | speed knots | gust knots | rain 1hr in | rain 24hr in | rain mn in | humidity % | barometer mb |
| 20260906094956 | 91 | 65 | 7.0 | 20.9 | 0.00 | 0.00 | 0.00 | 36 | 1015.7 |
| 20260906092957 | 90 | 70 | 10.4 | 23.5 | 0.00 | 0.00 | 0.00 | 35 | 1015.9 |
| 20260906091957 | 90 | 60 | 7.0 | 13.0 | 0.00 | 0.00 | 0.00 | 35 | 1015.8 |
| 20260906085957 | 90 | 78 | 8.7 | 14.8 | 0.00 | 0.00 | 0.00 | 36 | 1015.9 |
| 20260906084957 | 89 | 68 | 7.0 | 16.5 | 0.00 | 0.00 | 0.00 | 37 | 1015.7 |
| 20260906083957 | 89 | 71 | 8.7 | 13.9 | 0.00 | 0.00 | 0.00 | 38 | 1015.7 |
| 20260906082956 | 88 | 60 | 6.1 | 14.8 | 0.00 | 0.00 | 0.00 | 41 | 1015.7 |
| 20260906080956 | 88 | 8 | 5.2 | 16.5 | 0.00 | 0.00 | 0.00 | 41 | 1015.6 |
| 20260906075956 | 88 | 61 | 7.0 | 13.0 | 0.00 | 0.00 | 0.00 | 39 | 1015.6 |
| 20260906074957 | 88 | 67 | 7.0 | 13.9 | 0.00 | 0.00 | 0.00 | 41 | 1015.6 |
| 20260906072957 | 87 | 64 | 7.8 | 13.9 | 0.00 | 0.00 | 0.00 | 39 | 1015.4 |
| 20260906071957 | 87 | 62 | 7.8 | 13.9 | 0.00 | 0.00 | 0.00 | 41 | 1015.4 |
| 20260906070957 | 87 | 68 | 7.0 | 17.4 | 0.00 | 0.00 | 0.00 | 41 | 1015.3 |
| 20260906065957 | 86 | 56 | 6.1 | 12.2 | 0.00 | 0.00 | 0.00 | 42 | 1015.1 |
| 20260906063957 | 86 | 68 | 7.8 | 16.5 | 0.00 | 0.00 | 0.00 | 40 | 1014.7 |
| 20260906061956 | 85 | 58 | 7.0 | 13.9 | 0.00 | 0.00 | 0.00 | 41 | 1014.6 |
| 20260906060957 | 85 | 65 | 8.7 | 14.8 | 0.00 | 0.00 | 0.00 | 42 | 1014.6 |
| 20260906055957 | 85 | 57 | 6.1 | 12.2 | 0.00 | 0.00 | 0.00 | 43 | 1014.6 |
| 20260906054957 | 84 | 71 | 7.8 | 17.4 | 0.00 | 0.00 | 0.00 | 45 | 1014.5 |
| 20260906052957 | 83 | 63 | 7.0 | 12.2 | 0.00 | 0.00 | 0.00 | 45 | 1014.6 |
| 20260906051957 | 83 | 67 | 7.0 | 16.5 | 0.00 | 0.00 | 0.00 | 45 | 1014.6 |
| 20260906050957 | 83 | 54 | 4.3 | 12.2 | 0.00 | 0.00 | 0.00 | 47 | 1014.7 |
| 20260906045958 | 82 | 48 | 7.0 | 16.5 | 0.00 | 0.00 | 0.00 | 47 | 1014.6 |
| 20260906044957 | 82 | 54 | 3.5 | 13.0 | 0.00 | 0.00 | 0.00 | 48 | 1014.5 |
| 20260906042957 | 81 | 54 | 3.5 | 13.9 | 0.00 | 0.00 | 0.00 | 47 | 1014.2 |
| 20260906041957 | 81 | 69 | 2.6 | 9.6 | 0.00 | 0.00 | 0.00 | 46 | 1014.3 |
| 20260906040958 | 80 | 65 | 2.6 | 7.8 | 0.00 | 0.00 | 0.00 | 46 | 1014.1 |
| 20260906035957 | 80 | 40 | 1.7 | 12.2 | 0.00 | 0.00 | 0.00 | 46 | 1014.2 |
| 20260906033957 | 81 | 75 | 3.5 | 9.6 | 0.00 | 0.00 | 0.00 | 45 | 1014.1 |
| 20260906032958 | 81 | 42 | 3.5 | 8.7 | 0.00 | 0.00 | 0.00 | 43 | 1014.1 |
| 20260906031957 | 81 | 344 | 3.5 | 11.3 | 0.00 | 0.00 | 0.00 | 43 | 1013.9 |
| 20260906024957 | 81 | 53 | 2.6 | 9.6 | 0.00 | 0.00 | 0.00 | 41 | 1013.7 |
| 20260906023957 | 81 | 18 | 2.6 | 12.2 | 0.00 | 0.00 | 0.00 | 42 | 1013.5 |
| 20260906022957 | 81 | 27 | 3.5 | 8.7 | 0.00 | 0.00 | 0.00 | 42 | 1013.5 |
| 20260906021957 | 81 | 12 | 2.6 | 7.0 | 0.00 | 0.00 | 0.00 | 42 | 1013.4 |
| 20260906020957 | 81 | 347 | 2.6 | 11.3 | 0.00 | 0.00 | 0.00 | 43 | 1013.6 |
| 20260906015957 | 80 | 57 | 0.9 | 7.0 | 0.00 | 0.00 | 0.00 | 44 | 1013.6 |
| 20260906014957 | 81 | 81 | 1.7 | 5.2 | 0.00 | 0.00 | 0.00 | 43 | 1013.6 |
| 20260906013957 | 80 | 60 | 1.7 | 4.3 | 0.00 | 0.00 | 0.00 | 43 | 1013.5 |
| 20260906012957 | 81 | 80 | 2.6 | 7.0 | 0.00 | 0.00 | 0.00 | 42 | 1013.6 |
| 20260906011957 | 81 | 72 | 3.5 | 13.0 | 0.00 | 0.00 | 0.00 | 41 | 1013.5 |
| 20260906010957 | 81 | 59 | 4.3 | 9.6 | 0.00 | 0.00 | 0.00 | 41 | 1013.5 |
| 20260906005957 | 81 | 17 | 2.6 | 8.7 | 0.00 | 0.00 | 0.00 | 40 | 1013.6 |
| 20260906004957 | 81 | 17 | 1.7 | 5.2 | 0.00 | 0.00 | 0.00 | 40 | 1013.7 |
| 20260906003958 | 82 | 342 | 4.3 | 11.3 | 0.00 | 0.00 | 0.00 | 40 | 1013.7 |
| 20260906002958 | 81 | 314 | 2.6 | 9.6 | 0.00 | 0.00 | 0.00 | 40 | 1013.8 |
| 20260906001957 | 82 | 344 | 3.5 | 11.3 | 0.00 | 0.00 | 0.00 | 39 | 1013.9 |
| 20260905234958 | 82 | 295 | 0.9 | 4.3 | 0.00 | 0.00 | 0.00 | 38 | 1013.8 |
| 20260905233957 | 82 | 320 | 5.2 | 11.3 | 0.00 | 0.00 | 0.00 | 37 | 1013.9 |
| 20260905232957 | 82 | 326 | 5.2 | 11.3 | 0.00 | 0.00 | 0.00 | 38 | 1013.8 |
| 20260905230957 | 82 | 329 | 7.0 | 12.2 | 0.00 | 0.00 | 0.00 | 39 | 1013.9 |
| 20260905225957 | 82 | 326 | 5.2 | 13.9 | 0.00 | 0.00 | 0.00 | 39 | 1014.0 |
| 20260905224957 | 82 | 321 | 7.0 | 13.0 | 0.00 | 0.00 | 0.00 | 39 | 1013.8 |
| 20260905223957 | 82 | 330 | 7.0 | 16.5 | 0.00 | 0.00 | 0.00 | 38 | 1014.0 |
| 20260905222957 | 82 | 324 | 6.1 | 16.5 | 0.00 | 0.00 | 0.00 | 39 | 1013.9 |
| 20260905221957 | 81 | 334 | 3.5 | 9.6 | 0.00 | 0.00 | 0.00 | 40 | 1014.0 |
| 20260905220957 | 82 | 333 | 3.5 | 14.8 | 0.00 | 0.00 | 0.00 | 40 | 1014.0 |
| 20260905215957 | 82 | 355 | 3.5 | 8.7 | 0.00 | 0.00 | 0.00 | 39 | 1014.0 |
| 20260905212957 | 81 | 317 | 4.3 | 12.2 | 0.00 | 0.00 | 0.00 | 41 | 1014.3 |
| 20260905211957 | 81 | 350 | 2.6 | 9.6 | 0.00 | 0.00 | 0.00 | 41 | 1014.4 |
| 20260905210957 | 81 | 330 | 3.5 | 11.3 | 0.00 | 0.00 | 0.00 | 42 | 1014.5 |
| 20260905205959 | 81 | 312 | 5.2 | 13.0 | 0.00 | 0.00 | 0.00 | 41 | 1014.7 |
| 20260905204958 | 82 | 325 | 5.2 | 13.0 | 0.00 | 0.00 | 0.00 | 38 | 1014.6 |
| 20260905203957 | 82 | 340 | 5.2 | 13.9 | 0.00 | 0.00 | 0.00 | 37 | 1014.6 |
| 20260905202957 | 82 | 54 | 3.5 | 9.6 | 0.00 | 0.00 | 0.00 | 38 | 1014.5 |
| 20260905200957 | 81 | 156 | 5.2 | 11.3 | 0.00 | 0.00 | 0.00 | 39 | 1014.6 |
| 20260905195958 | 81 | 138 | 8.7 | 14.8 | 0.00 | 0.00 | 0.00 | 41 | 1014.4 |
| 20260905194958 | 81 | 163 | 5.2 | 8.7 | 0.00 | 0.00 | 0.00 | 41 | 1014.5 |
| 20260905193958 | 81 | 138 | 5.2 | 9.6 | 0.00 | 0.00 | 0.00 | 42 | 1014.6 |
| 20260905192958 | 81 | 126 | 1.7 | 7.0 | 0.00 | 0.00 | 0.00 | 43 | 1014.7 |
| 20260905191958 | 81 | 20 | 4.3 | 11.3 | 0.00 | 0.00 | 0.00 | 43 | 1014.7 |
| 20260905190958 | 81 | 92 | 5.2 | 12.2 | 0.00 | 0.00 | 0.00 | 43 | 1014.7 |
| 20260905185958 | 81 | 93 | 4.3 | 8.7 | 0.00 | 0.00 | 0.00 | 44 | 1014.7 |
| 20260905184957 | 81 | 115 | 5.2 | 11.3 | 0.00 | 0.00 | 0.00 | 44 | 1014.6 |
| 20260905183957 | 81 | 130 | 2.6 | 9.6 | 0.00 | 0.00 | 0.00 | 44 | 1014.7 |
| 20260905182957 | 81 | 123 | 4.3 | 11.3 | 0.00 | 0.00 | 0.00 | 46 | 1014.7 |
| 20260905181957 | 81 | 90 | 7.8 | 13.0 | 0.00 | 0.00 | 0.00 | 44 | 1014.6 |
| 20260905174957 | 81 | 87 | 3.5 | 12.2 | 0.00 | 0.00 | 0.00 | 45 | 1014.6 |
| 20260905173957 | 81 | 90 | 4.3 | 16.5 | 0.00 | 0.00 | 0.00 | 45 | 1014.6 |
| 20260905172957 | 81 | 58 | 6.1 | 11.3 | 0.00 | 0.00 | 0.00 | 46 | 1014.3 |
| 20260905165957 | 81 | 41 | 6.1 | 16.5 | 0.00 | 0.00 | 0.00 | 44 | 1014.2 |
| 20260905164957 | 81 | 32 | 5.2 | 13.0 | 0.00 | 0.00 | 0.00 | 48 | 1013.9 |
| 20260905163957 | 81 | 42 | 4.3 | 16.5 | 0.00 | 0.00 | 0.00 | 49 | 1014.3 |
| 20260905161957 | 81 | 19 | 5.2 | 14.8 | 0.00 | 0.00 | 0.00 | 52 | 1014.4 |
| 20260905160957 | 81 | 39 | 6.1 | 20.0 | 0.00 | 0.00 | 0.00 | 49 | 1014.3 |
| 20260905155958 | 81 | 47 | 7.0 | 13.0 | 0.00 | 0.00 | 0.00 | 51 | 1014.4 |
| 20260905153958 | 82 | 31 | 7.8 | 17.4 | 0.00 | 0.00 | 0.00 | 50 | 1014.3 |
| 20260905152958 | 82 | 50 | 6.1 | 13.9 | 0.00 | 0.00 | 0.00 | 49 | 1014.3 |
| 20260905150957 | 83 | 55 | 7.0 | 16.5 | 0.00 | 0.00 | 0.00 | 48 | 1014.3 |
| 20260905145958 | 83 | 52 | 7.8 | 18.2 | 0.00 | 0.00 | 0.00 | 48 | 1014.3 |
| 20260905144958 | 83 | 27 | 9.6 | 20.0 | 0.00 | 0.00 | 0.00 | 43 | 1014.4 |
| 20260905143958 | 84 | 39 | 8.7 | 18.2 | 0.00 | 0.00 | 0.00 | 44 | 1014.4 |
| 20260905142958 | 83 | 26 | 9.6 | 17.4 | 0.00 | 0.00 | 0.00 | 47 | 1014.2 |
| 20260905141958 | 83 | 37 | 9.6 | 18.2 | 0.00 | 0.00 | 0.00 | 50 | 1014.2 |
| 20260905135958 | 84 | 29 | 9.6 | 18.2 | 0.00 | 0.00 | 0.00 | 47 | 1014.4 |
| 20260905134958 | 84 | 33 | 8.7 | 16.5 | 0.00 | 0.00 | 0.00 | 45 | 1014.2 |
| 20260905133958 | 84 | 51 | 8.7 | 14.8 | 0.00 | 0.00 | 0.00 | 45 | 1014.4 |
| 20260905132958 | 84 | 59 | 8.7 | 22.6 | 0.00 | 0.00 | 0.00 | 45 | 1014.5 |
| 20260905131958 | 83 | 355 | 9.6 | 17.4 | 0.00 | 0.00 | 0.00 | 46 | 1014.6 |
| 20260905130958 | 84 | 48 | 9.6 | 16.5 | 0.00 | 0.00 | 0.00 | 51 | 1014.7 |
| 20260905125958 | 84 | 61 | 7.0 | 20.9 | 0.00 | 0.00 | 0.00 | 49 | 1014.7 |
| 20260905124958 | 84 | 66 | 9.6 | 20.9 | 0.00 | 0.00 | 0.00 | 46 | 1014.8 |
| 20260905122958 | 84 | 63 | 13.0 | 25.2 | 0.00 | 0.00 | 0.00 | 42 | 1015.0 |
| 20260905120958 | 84 | 69 | 12.2 | 26.9 | 0.00 | 0.00 | 0.00 | 42 | 1015.1 |
| 20260905115958 | 84 | 67 | 9.6 | 25.2 | 0.00 | 0.00 | 0.00 | 43 | 1015.2 |
| 20260905114957 | 84 | 74 | 9.6 | 20.9 | 0.00 | 0.00 | 0.00 | 44 | 1015.2 |
| 20260905112957 | 83 | 62 | 11.3 | 20.0 | 0.00 | 0.00 | 0.00 | 47 | 1015.0 |
| 20260905111958 | 84 | 62 | 9.6 | 23.5 | 0.00 | 0.00 | 0.00 | 47 | 1015.1 |
| 20260905110957 | 83 | 359 | 9.6 | 22.6 | 0.00 | 0.00 | 0.00 | 49 | 1014.9 |
| 20260905104957 | 83 | 26 | 7.8 | 18.2 | 0.00 | 0.00 | 0.00 | 49 | 1015.0 |
| 20260905103957 | 84 | 68 | 8.7 | 20.0 | 0.00 | 0.00 | 0.00 | 48 | 1015.0 |
| 20260905101958 | 84 | 49 | 8.7 | 20.9 | 0.00 | 0.00 | 0.00 | 50 | 1015.0 |
| 20260905100957 | 84 | 41 | 7.0 | 17.4 | 0.00 | 0.00 | 0.00 | 48 | 1015.0 |
| 20260905095957 | 83 | 43 | 9.6 | 18.2 | 0.00 | 0.00 | 0.00 | 51 | 1014.9 |